This is the latest recevied weather packets stored in our database for station/object NK7I. If no packets are shown the sender has not sent any weather packets the latest 10 day(s).
| Time | Temp. | Humidity | Pressure | Rain* | Wind** | Luminosity | Snow |
|---|---|---|---|---|---|---|---|
| 1778011883 | 20.56° C | 32% | 1012.7 hPa | 0 mm | - | 1274 W/m² | - |
| 1778011584 | 20° C | 33% | 1013 hPa | 0 mm | - | 1276 W/m² | - |
| 1778011283 | 20.56° C | 33% | 1012.8 hPa | 0 mm | - | 1278 W/m² | - |
| 1778010984 | 20.56° C | 34% | 1012.7 hPa | 0 mm | - | 1283 W/m² | - |
| 1778010683 | 20.56° C | 36% | 1012.8 hPa | 0 mm | - | 1288 W/m² | - |
| 1778010383 | 21.11° C | 34% | 1012.8 hPa | 0 mm | - | 1287 W/m² | - |
| 1778010083 | 21.11° C | 35% | 1012.8 hPa | 0 mm | - | 1288 W/m² | - |
| 1778009783 | 21.11° C | 37% | 1012.8 hPa | 0 mm | - | 1288 W/m² | - |
| 1778009483 | 20.56° C | 35% | 1012.8 hPa | 0 mm | - | 1287 W/m² | - |
| 1778009183 | 20.56° C | 36% | 1012.8 hPa | 0 mm | - | 1285 W/m² | - |
| 1778008883 | 20.56° C | 32% | 1012.8 hPa | 0 mm | - | 1285 W/m² | - |
| 1778008583 | 20° C | 36% | 1013 hPa | 0 mm | - | 1280 W/m² | - |
| 1778008283 | 20.56° C | 34% | 1013 hPa | 0 mm | - | 1276 W/m² | - |
| 1778007983 | 20° C | 36% | 1013.2 hPa | 0 mm | - | 1273 W/m² | - |
| 1778007683 | 20° C | 35% | 1013.2 hPa | 0 mm | - | 1269 W/m² | - |
| 1778007384 | 20° C | 37% | 1013.3 hPa | 0 mm | - | 1266 W/m² | - |
| 1778007084 | 19.44° C | 33% | 1013.3 hPa | 0 mm | - | 1260 W/m² | - |
| 1778006783 | 19.44° C | 40% | 1013.3 hPa | 0 mm | - | 1255 W/m² | - |
| 1778006483 | 19.44° C | 36% | 1013.3 hPa | 0 mm | - | 1246 W/m² | - |
| 1778006183 | 19.44° C | 35% | 1013.3 hPa | 0 mm | - | 1241 W/m² | - |
| 1778005883 | 18.89° C | 42% | 1013.4 hPa | 0 mm | - | 1239 W/m² | - |
| 1778005583 | 18.89° C | 36% | 1013.5 hPa | 0 mm | - | 1229 W/m² | - |
| 1778005283 | 18.89° C | 38% | 1013.5 hPa | 0 mm | - | 1222 W/m² | - |
| 1778004983 | 18.89° C | 34% | 1013.5 hPa | 0 mm | - | 1211 W/m² | - |
| 1778004683 | 18.89° C | 33% | 1013.5 hPa | 0 mm | - | 1204 W/m² | - |
* Rain latest hour (hover to see other rain measurements)
** Current wind speed in m/s (hover to see current wind gust speed)